CZ-6A DEB, 56269

Orbit data source: Space-Track

CZ-6A DEB, 56269 is space debris in SSO originally from a launch on Fri, 11 Nov 2022 UTC launched from the Taiyaun Space Center, China (TSC). Debris objects in space refer to the collection of defunct objects orbiting the Earth. Examples of debris include non-operational satellites, rocket bodies, and fragments generated from explosions, collisions, or faulty payload assembly.

Loading next visibility...
Identifier
56269, 2022-151ACM
Orbit
SSO
Country
Flag of CNCN / PRC
Related business
Manufacturer
SAST
Mission
Spacecraft
Bus & Motor
Unknown
Mass
Unknown
Launch date (UTC)
2022-11-11 (3 years ago)
Launch vehicle
Unknown
Launch site
Taiyaun Space Center, China (TSC)
Object type
Payload
Rocket body
Debris
Shape & HBR
Unknown shape, 0.1 m
Radar Cross Section
Small (<0.1 m²)

Expand to show TLE details & history
Last TLE update: 1 day ago

TLE from 1 day ago
0 CZ-6A DEB
1 56269U 22151ACM 25349.00451117  .00000601  00000-0  34581-3 0  9992
2 56269  98.8298 351.0395 0038183 126.9591 233.5087 14.12629677144761
Epoch: 2025-12-15T00:06Z
TLE epoch observation values (Epoch: 2025-12-15T00:06:29.765Z)
Latitude
-0.00001°
Longitude
-94.49382°
Altitude
869.773 km
Speed
7.409 km/s
True Right ascension
23h 24m 09s
True Declination
0° 00' 00"
Sunlit
Object was in daylight at epoch
Visualization orbit readout
Latitude
Unknown
Longitude
Unknown
Altitude
Unknown
Speed
Unknown
Apparent Right ascension
Unknown
Apparent Declination
Unknown
Sunlit
N/A
Visualization observer readout
Local Sidereal Time
08:22:35
Azimuth
Unknown
Elevation
Unknown
Doppler factor
Unknown
Orbital elements
Apogee altitude
875.151 km
Perigee altitude
819.971 km
Semi-major axis
7,225.698 km
Eccentricity
0.00382
Inclination
98.8298°
RAAN
351.0395°
Arg. of periapsis
126.9591°
True anomaly
233.15793°
Mean anomaly
233.5087°
Eccentric anomaly
233.33322°
Mean motion
3.53365 °/min
Orbital period
101.88 mins
BSTAR
0.00034581
Loading maneuver chart data...
Computing Atmospheric mass density...
Loading historical data...
Loading historical data...
Loading historical data...
Loading historical data...
Loading historical data...
Loading historical data...
Loading historical data...

Documentation

Showing up to 5 results
|